CW9688 Weather Reports


time (UTC)temp
C
wind
direction
speed
KPH
gust
KPH
rain 1hr
cm
rain 24hr
cm
rain mn
cm
humidity
%
barometer
mb
20260507075805 1 187 8.0 12.9 0.00 0.20 0.00 79 1011.3
20260507073805 1 189 8.0 16.1 0.00 0.23 0.00 80 1011.3
20260507073305 1 185 9.7 14.5 0.00 0.23 0.00 80 1011.3
20260507071805 1 184 9.7 19.3 0.00 0.25 0.00 82 1011.3
20260507071304 1 179 8.0 14.5 0.00 0.28 0.00 83 1011.3
20260507064805 1 182 6.4 11.3 0.00 0.30 0.00 84 1011.8
20260507064305 1 178 8.0 12.9 0.00 0.30 0.00 84 1011.8
20260507063804 1 182 8.0 12.9 0.00 0.30 0.00 84 1011.8
20260507063305 1 174 8.0 12.9 0.00 0.33 0.00 84 1011.8
20260507062805 1 185 8.0 12.9 0.00 0.33 0.00 84 1011.8
20260507062306 1 183 8.0 12.9 0.00 0.33 0.00 84 1011.8
20260507061305 1 200 8.0 11.3 0.00 0.33 0.00 85 1011.8
20260507060816 1 189 6.4 11.3 0.00 0.33 0.00 85 1011.8
20260507052804 0 182 6.4 11.3 0.00 0.36 0.33 91 1011.8
20260507052306 0 191 3.2 4.8 0.00 0.36 0.33 91 1011.8
20260507051305 0 176 3.2 4.8 0.00 0.41 0.33 91 1011.8
20260507045804 0 176 0.0 0.0 0.00 0.43 0.33 91 1011.8
20260507045306 0 176 0.0 1.6 0.00 0.43 0.33 90 1011.8
20260507044805 0 176 0.0 1.6 0.00 0.46 0.33 90 1011.8
20260507043805 0 176 0.0 0.0 0.00 0.46 0.33 90 1011.8
20260507043304 0 176 0.0 0.0 0.00 0.46 0.33 90 1011.8
20260507042307 0 176 1.6 3.2 0.00 0.48 0.33 90 1011.8
20260507041305 0 176 1.6 3.2 0.00 0.51 0.33 90 1011.8
20260507040305 0 176 1.6 3.2 0.00 0.51 0.33 89 1011.8
20260507035306 0 176 0.0 0.0 0.00 0.53 0.33 89 1011.8
20260507034304 0 176 0.0 0.0 0.00 0.56 0.33 88 1011.8
20260507032306 0 176 0.0 1.6 0.00 0.58 0.33 86 1011.8
20260507031305 1 176 0.0 0.0 0.00 0.58 0.33 85 1011.8
20260507030804 1 176 0.0 0.0 0.00 0.58 0.33 85 1011.8
20260507025306 1 176 0.0 0.0 0.00 0.61 0.33 82 1011.8
20260507023305 2 166 0.0 3.2 0.00 0.66 0.33 79 1011.8
20260507022804 2 166 1.6 3.2 0.00 0.66 0.33 78 1011.8
20260507022306 2 166 0.0 3.2 0.00 0.69 0.33 78 1011.8
20260507020805 2 166 1.6 4.8 0.00 0.79 0.33 75 1011.8
20260507020304 3 166 1.6 4.8 0.00 0.84 0.33 74 1011.8
20260507015306 3 157 3.2 8.0 0.00 0.94 0.33 73 1011.8
20260507014805 3 170 3.2 9.7 0.00 0.97 0.33 73 1011.8
20260507013305 3 172 6.4 11.3 0.00 1.04 0.33 71 1015.7
20260507012306 4 175 8.0 11.3 0.00 1.04 0.33 71 1015.7
20260507011305 4 142 6.4 9.7 0.00 1.04 0.33 69 1015.7
20260507010805 4 160 4.8 12.9 0.00 1.04 0.33 69 1015.7
20260507005805 4 171 8.0 14.5 0.00 1.04 0.33 68 1015.7
20260507005306 4 157 3.2 9.7 0.00 1.07 0.33 68 1015.7
20260507004304 4 152 9.7 14.5 0.00 1.07 0.33 68 1015.7
20260507003805 4 156 3.2 12.9 0.00 1.07 0.33 68 1015.7
20260507002805 4 174 9.7 19.3 0.00 1.07 0.33 69 1015.7
20260507002306 5 166 9.7 14.5 0.00 1.07 0.33 69 1015.7
20260507001805 5 157 4.8 9.7 0.00 1.07 0.33 69 1015.7
20260507001304 5 162 8.0 12.9 0.00 1.07 0.33 69 1015.7
20260507000804 5 182 11.3 14.5 0.00 1.07 0.33 68 1015.7
20260506235805 4 171 6.4 9.7 0.00 1.07 0.33 68 1015.7
20260506235306 4 184 6.4 11.3 0.00 1.07 0.33 68 1015.7
20260506234304 4 130 6.4 11.3 0.00 1.07 0.33 71 1015.7
20260506233804 4 190 6.4 16.1 0.00 1.07 0.33 69 1015.7
20260506233305 4 173 9.7 14.5 0.00 1.07 0.33 69 1015.7
20260506232805 5 229 6.4 11.3 0.00 1.07 0.33 70 1015.7
20260506231805 4 225 3.2 12.9 0.00 1.07 0.33 68 1015.7
20260506230805 5 173 8.0 14.5 0.00 1.07 0.33 71 1015.7
20260506225305 4 184 8.0 11.3 0.00 1.07 0.33 73 1015.7
20260506224305 3 147 8.0 12.9 0.00 1.09 0.33 73 1015.7
20260506223806 4 167 11.3 14.5 0.00 1.12 0.33 73 1015.7
20260506222306 3 221 4.8 11.3 0.00 1.12 0.33 74 1015.7
20260506220304 3 211 1.6 4.8 0.00 1.14 0.33 80 1015.7
20260506215805 3 170 1.6 8.0 0.00 1.14 0.33 80 1015.7
20260506215306 2 220 4.8 8.0 0.00 1.14 0.33 80 1015.7
20260506213805 3 160 4.8 11.3 0.00 1.19 0.33 82 1015.7
20260506213305 2 184 0.0 3.2 0.00 1.19 0.33 82 1015.7
20260506205306 1 184 3.2 4.8 0.00 1.30 0.33 83 1015.7
20260506204304 1 200 1.6 4.8 0.00 1.30 0.33 84 1015.7
20260506203305 1 136 3.2 9.7 0.00 1.30 0.33 84 1015.7
20260506202804 1 189 3.2 4.8 0.00 1.32 0.33 84 1015.7
20260506202306 1 225 3.2 4.8 0.00 1.32 0.33 81 1015.7
20260506201805 2 315 1.6 4.8 0.00 1.32 0.33 83 1015.7
20260506200804 1 319 1.6 3.2 0.00 1.35 0.33 83 1015.7
20260506193305 1 5 3.2 8.0 0.00 1.35 0.33 88 1015.7
20260506192306 1 350 1.6 8.0 0.00 1.35 0.33 86 1015.7
20260506191805 1 325 1.6 8.0 0.00 1.35 0.33 87 1015.7
20260506190805 1 226 1.6 4.8 0.00 1.35 0.33 87 1015.7
20260506185804 1 271 0.0 4.8 0.00 1.35 0.33 88 1015.7
20260506185307 1 289 4.8 9.7 0.00 1.35 0.33 88 1015.7
20260506184805 1 26 4.8 8.0 0.00 1.35 0.33 88 1015.7
20260506183804 1 346 4.8 8.0 0.03 1.35 0.33 88 1015.7
20260506183304 1 346 1.6 4.8 0.03 1.35 0.33 89 1015.7
20260506182306 1 348 4.8 11.3 0.03 1.35 0.33 90 1015.7
20260506181805 1 338 4.8 11.3 0.03 1.35 0.33 90 1015.7
20260506181304 0 336 6.4 9.7 0.03 1.37 0.33 91 1015.7
20260506180805 0 336 3.2 8.0 0.05 1.37 0.33 91 1015.7
20260506180305 1 336 3.2 9.7 0.05 1.37 0.33 91 1015.7
20260506174805 0 336 3.2 8.0 0.05 1.37 0.33 91 1015.4
20260506173304 0 336 1.6 9.7 0.05 1.37 0.30 92 1011.5
20260506172804 0 336 3.2 11.3 0.05 1.40 0.30 92 1011.5
20260506171805 0 18 8.0 12.9 0.05 1.40 0.30 92 1011.5
20260506171305 0 4 8.0 16.1 0.05 1.40 0.30 93 1011.5
20260506170804 0 25 6.4 14.5 0.05 1.37 0.28 92 1011.5
20260506163805 0 1 9.7 19.3 0.08 1.40 0.28 93 1011.5
20260506162804 0 353 11.3 20.9 0.05 1.40 0.25 93 1011.5
20260506161304 0 10 11.3 25.7 0.08 1.40 0.25 94 1011.5
20260506160805 0 13 9.7 22.5 0.05 1.37 0.23 94 1011.5
20260506155306 0 344 11.3 19.3 0.08 1.40 0.23 94 1011.5
20260506154804 0 341 8.0 16.1 0.08 1.40 0.23 94 1011.5
20260506154305 0 334 11.3 19.3 0.05 1.37 0.20 94 1011.5
20260506153304 0 337 8.0 20.9 0.05 1.37 0.20 94 1011.5
20260506152804 0 338 12.9 19.3 0.05 1.37 0.20 94 1011.5
20260506152306 0 331 14.5 20.9 0.05 1.37 0.20 94 1011.5
20260506151805 0 354 8.0 14.5 0.03 1.35 0.18 95 1011.5
20260506150305 0 351 0.0 0.0 0.00 1.32 0.15 95 1011.5
20260506145806 0 330 0.0 0.0 0.00 1.35 0.15 95 1011.5
20260506145306 0 5 0.0 0.0 0.00 1.35 0.15 95 1011.5
20260506144305 0 350 0.0 0.0 0.00 1.35 0.15 95 1011.5
20260506143305 0 346 0.0 0.0 0.00 1.37 0.15 95 1011.5
20260506142805 0 331 0.0 0.0 0.00 1.37 0.15 95 1011.5
20260506141304 0 13 0.0 0.0 0.00 1.37 0.15 95 1011.5
20260506140304 0 13 0.0 0.0 0.00 1.40 0.15 95 1011.5
20260506135306 0 13 0.0 0.0 0.00 1.42 0.15 95 1011.5
20260506134304 0 13 0.0 0.0 0.00 1.42 0.15 95 1011.5
20260506133305 0 14 0.0 0.0 0.00 1.45 0.15 95 1011.5
20260506132805 0 14 0.0 0.0 0.00 1.45 0.15 95 1011.5
20260506131804 0 14 0.0 0.0 0.00 1.45 0.15 95 1011.5
20260506131305 0 14 0.0 0.0 0.00 1.47 0.15 95 1011.5
20260506130805 0 14 0.0 0.0 0.00 1.47 0.15 95 1011.5
20260506130304 0 14 0.0 0.0 0.00 1.50 0.15 95 1011.5
20260506125805 0 14 0.0 0.0 0.00 1.50 0.15 95 1011.5
20260506125306 0 14 0.0 0.0 0.00 1.50 0.15 95 1011.5
20260506124805 0 14 0.0 0.0 0.00 1.52 0.15 96 1011.5
20260506123305 0 14 0.0 0.0 0.00 1.52 0.15 95 1011.5
20260506122805 0 14 0.0 0.0 0.00 1.52 0.15 95 1011.5
20260506122306 0 14 0.0 0.0 0.00 1.55 0.15 95 1011.5
20260506121306 0 14 0.0 0.0 0.00 1.55 0.15 95 1011.5
20260506120304 0 14 0.0 0.0 0.00 1.57 0.15 95 1011.5
20260506115805 0 14 0.0 0.0 0.00 1.57 0.15 95 1011.5
20260506115307 0 14 0.0 0.0 0.00 1.57 0.15 95 1011.5
20260506113804 0 14 0.0 0.0 0.00 1.63 0.15 95 1011.5
20260506113304 0 14 0.0 0.0 0.00 1.65 0.15 95 1011.5
20260506112805 0 14 0.0 0.0 0.00 1.65 0.15 95 1011.5
20260506112306 0 14 0.0 0.0 0.00 1.65 0.15 95 1011.5
20260506110804 0 14 0.0 0.0 0.00 1.68 0.15 95 1011.5
20260506110304 0 14 0.0 0.0 0.00 1.68 0.15 95 1011.5
20260506105804 0 14 0.0 0.0 0.00 1.68 0.15 95 1011.5
20260506105305 0 14 0.0 0.0 0.00 1.68 0.15 95 1011.5
20260506104804 0 14 0.0 0.0 0.00 1.68 0.15 95 1011.5
20260506102804 0 14 0.0 0.0 0.00 1.70 0.15 95 1011.5
20260506101305 0 14 0.0 0.0 0.00 1.73 0.15 95 1011.5
20260506095305 0 14 0.0 0.0 0.00 1.78 0.15 95 1011.5
20260506094804 0 14 0.0 0.0 0.03 1.80 0.15 95 1011.5
20260506094304 0 14 0.0 0.0 0.03 1.80 0.15 95 1011.5
20260506093804 0 14 0.0 0.0 0.03 1.80 0.15 95 1011.5
20260506092805 0 14 0.0 0.0 0.03 1.80 0.15 95 1011.5
20260506091805 0 14 0.0 0.0 0.03 1.80 0.15 95 1011.5
20260506091305 0 14 0.0 0.0 0.03 1.80 0.15 95 1011.5
20260506085804 0 14 0.0 0.0 0.03 1.80 0.15 95 1011.5
20260506085306 0 14 0.0 0.0 0.03 1.80 0.15 95 1011.5
20260506082805 0 14 0.0 0.0 0.03 1.83 0.13 95 1011.5
20260506080804 0 14 0.0 0.0 0.08 1.88 0.13 95 1011.5
20260506080304 0 13 0.0 0.0 0.10 1.88 0.13 95 1011.5